2014 WP509

Initial reported observation by Pan-STARRS 1, Haleakala on 2014-11-17.
(Discoverer will be defined when the object is numbered. See this note on how discoverers are determined.)

Orbit

Orbit type: Distant object

Note: WebGL enabled browser required.

epoch2024-03-31.0
epoch JD2460400.5
perihelion date1978-01-03.60176
perihelion JD2443512.10176
argument of perihelion (°)338.31549
ascending node (°)66.63947
inclination (°)8.32410
eccentricity0.0935780
perihelion distance (AU)40.9368144
Tisserand w.r.t. Jupiter5.9
ΔV w.r.t. Earth (km/sec)12.4
semimajor axis (AU)45.1630861
mean anomaly (°)54.84246
mean daily motion (°/day)0.00324730
aphelion distance (AU)49.389
period (years)304
P-vector [x]0.70408881
P-vector [y]0.67094197
P-vector [z]0.23258509
Q-vector [x]-0.69756375
Q-vector [y]0.59219431
Q-vector [z]0.40337415
absolute magnitude4.44
phase slope0.15
uncertainty3
referenceMPEC 2024-C163
observations used133
oppositions11
arc length (days)4861
first opposition used2010
last opposition used2024
residual rms (arc-secs)0.37
perturbers coarse indicatorM-v
perturbers precise indicator003Ek
first observation date used2010-10-23.0
last observation date used2024-02-13.0
computer nameMPCLINUX
JD of orbit computation2458362.960480
perihelion JD uncertainty (days)2.5301E+00
argument of perihelion uncertainty (°)1.1085E-02
ascending node uncertainty (°)1.3075E-04
inclination uncertainty (°)3.5424E-05
eccentricity uncertainty 2.2892E-05
perihelion distance uncertainty (AU)8.2453E-04
Minimum Orbit Intersection Distances (in AU)
for orbit epoch: 2460200.5, reference: E2024-CG3
Mercury40.5683
Venus40.1636
Earth39.8963
Mars39.4216
Jupiter35.9039
Saturn31.676
Uranus21.1829
Neptune11.045

Observations

135 total observations over interval: 2010 10 23.51911 – 2024 02 13.270443
These data are available for download (format description).

